GW2838 Weather Reports


Display with metric or nautical units.
time (UTC)temp
F
wind
direction
speed
MPH
gust
MPH
rain 1hr
in
rain 24hr
in
rain mn
in
humidity
%
barometer
mb
20260510094035 52 0.0 0.0 0.00 0.00 0.00 89 1034.3
20260510093032 52 0.0 0.0 0.00 0.00 0.00 89 1034.4
20260510092027 53 0.0 0.0 0.00 0.00 0.00 88 1034.3
20260510091023 53 0.0 0.0 0.00 0.00 0.00 88 1034.1
20260510090018 54 169 0.0 1.0 0.00 0.00 0.00 88 1034.0
20260510085035 54 0.0 0.0 0.00 0.00 0.00 88 1033.9
20260510084031 55 327 3.0 6.0 0.00 0.00 0.00 89 1033.8
20260510083027 55 331 4.0 8.0 0.00 0.00 0.00 89 1033.8
20260510082044 54 320 4.0 7.0 0.00 0.00 0.00 89 1033.7
20260510081021 54 340 2.0 4.0 0.00 0.00 0.00 88 1033.6
20260510080018 54 0.0 0.0 0.00 0.00 0.00 87 1033.5
20260510075034 54 0.0 0.0 0.00 0.00 0.00 87 1033.3
20260510074050 54 0.0 0.0 0.00 0.00 0.00 87 1033.2
20260510073027 54 0.0 0.0 0.00 0.00 0.00 87 1033.2
20260510072023 55 0.0 0.0 0.00 0.00 0.00 87 1033.0
20260510071020 55 0.0 0.0 0.00 0.00 0.00 87 1032.9
20260510070018 55 0.0 0.0 0.00 0.00 0.00 87 1032.9
20260510065033 55 0.0 0.0 0.00 0.00 0.00 86 1032.8
20260510064030 55 0.0 0.0 0.00 0.00 0.00 86 1032.8
20260510063026 55 0.0 0.0 0.00 0.00 0.00 86 1032.8
20260510062043 56 0.0 0.0 0.00 0.00 0.00 86 1032.9
20260510061039 56 0.0 0.0 0.00 0.00 0.00 86 1032.8
20260510060015 56 0.0 0.0 0.00 0.00 0.00 85 1032.9
20260510055052 57 0.0 0.0 0.00 0.00 0.00 85 1032.8
20260510054048 57 0.0 0.0 0.00 0.00 0.00 85 1033.0
20260510053025 57 0.0 0.0 0.00 0.00 0.00 84 1032.9
20260510052021 57 0.0 0.0 0.00 0.00 0.00 84 1032.9
20260510051018 58 0.0 0.0 0.00 0.00 0.00 84 1032.9
20260510050035 58 0.0 0.0 0.00 0.00 0.00 83 1032.9
20260510045031 58 0.0 0.0 0.00 0.00 0.00 83 1033.0
20260510044026 58 0.0 0.0 0.00 0.00 0.00 82 1032.9
20260510043023 59 0.0 0.0 0.00 0.00 0.00 82 1033.1
20260510042019 59 0.0 0.0 0.00 0.00 0.00 81 1033.1
20260510041015 59 0.0 0.0 0.00 0.00 0.00 80 1033.0
20260510040031 60 45 0.0 1.0 0.00 0.00 0.00 80 1032.8
20260510035108 60 54 0.0 1.0 0.00 0.00 0.00 79 1032.8
20260510034044 60 54 1.0 1.0 0.00 0.00 0.00 79 1032.8
20260510033020 61 35 0.0 2.0 0.00 0.00 0.00 78 1032.7
20260510032016 61 16 1.0 2.0 0.00 0.00 0.00 77 1032.9
20260510031032 62 20 2.0 3.0 0.00 0.00 0.00 77 1032.7
20260510030028 62 36 2.0 3.0 0.00 0.00 0.00 76 1032.6
20260510025025 62 22 3.0 6.0 0.00 0.00 0.00 76 1032.6
20260510024041 63 35 3.0 4.0 0.00 0.00 0.00 75 1032.5
20260510023017 63 21 3.0 6.0 0.00 0.00 0.00 74 1032.5
20260510022033 63 23 3.0 4.0 0.00 0.00 0.00 74 1032.5
20260510021110 63 28 3.0 6.0 0.00 0.00 0.00 74 1032.5
20260510020107 63 9 2.0 4.0 0.00 0.00 0.00 74 1032.3
20260510015022 63 9 3.0 4.0 0.00 0.00 0.00 73 1032.3
20260510014018 64 3 2.0 4.0 0.00 0.00 0.00 73 1032.0
20260510013034 64 28 3.0 4.0 0.00 0.00 0.00 72 1032.0
20260510012031 64 22 2.0 3.0 0.00 0.00 0.00 71 1031.8
20260510011027 65 21 2.0 4.0 0.00 0.00 0.00 71 1031.6
20260510010023 65 14 2.0 3.0 0.00 0.00 0.00 70 1031.6
20260510005019 66 53 1.0 3.0 0.00 0.00 0.00 69 1031.4
20260510004015 66 11 2.0 6.0 0.00 0.00 0.00 68 1031.5
20260510003032 67 27 3.0 6.0 0.00 0.00 0.00 68 1031.3
20260510002048 67 24 2.0 4.0 0.00 0.00 0.00 66 1031.2
20260510001024 68 30 3.0 6.0 0.00 0.00 0.00 65 1031.2
20260510000040 68 37 3.0 6.0 0.00 0.00 0.00 65 1031.1
20260509235017 69 15 3.0 7.0 0.00 0.00 0.00 63 1031.0
20260509234032 71 14 5.0 8.0 0.00 0.00 0.00 60 1030.9
20260509233029 72 38 3.0 6.0 0.00 0.00 0.00 56 1030.8
20260509232025 73 62 1.0 2.0 0.00 0.00 0.00 54 1030.8
20260509231041 73 163 1.0 4.0 0.00 0.00 0.00 53 1030.8
20260509230017 73 184 2.0 3.0 0.00 0.00 0.00 52 1030.7
20260509225055 74 201 4.0 7.0 0.00 0.00 0.00 52 1030.7
20260509224030 75 181 4.0 9.0 0.00 0.00 0.00 51 1030.6
20260509223026 75 137 1.0 6.0 0.00 0.00 0.00 52 1030.7
20260509222042 74 192 3.0 7.0 0.00 0.00 0.00 52 1030.8
20260509221039 74 177 3.0 7.0 0.00 0.00 0.00 51 1030.6
20260509220034 74 218 0.0 2.0 0.00 0.00 0.00 51 1030.7
20260509215030 75 289 2.0 2.0 0.00 0.00 0.00 51 1030.7
20260509214026 75 246 1.0 2.0 0.00 0.00 0.00 50 1030.7
20260509213022 76 265 4.0 7.0 0.00 0.00 0.00 49 1030.8
20260509212018 77 263 2.0 4.0 0.00 0.00 0.00 50 1030.7
20260509211034 77 243 5.0 13.0 0.00 0.00 0.00 50 1030.7
20260509210030 76 186 4.0 10.0 0.00 0.00 0.00 50 1030.4
20260509205026 76 209 4.0 7.0 0.00 0.00 0.00 51 1030.6
20260509203018 75 192 5.0 9.0 0.00 0.00 0.00 52 1030.3
20260509202034 75 242 4.0 9.0 0.00 0.00 0.00 51 1030.6
20260509201051 75 220 5.0 11.0 0.00 0.00 0.00 52 1030.9
20260509200026 75 187 6.0 15.0 0.00 0.00 0.00 53 1031.0
20260509195023 74 197 5.0 13.0 0.00 0.00 0.00 56 1031.1
20260509194019 73 266 1.0 6.0 0.00 0.00 0.00 58 1031.3
20260509193035 73 256 3.0 7.0 0.00 0.00 0.00 59 1031.7
20260509192031 73 319 2.0 3.0 0.00 0.00 0.00 57 1031.7
20260509191027 72 228 4.0 11.0 0.00 0.00 0.00 58 1031.7
20260509190105 71 113 1.0 3.0 0.00 0.00 0.00 60 1031.7
20260509185019 69 50 1.0 2.0 0.00 0.00 0.00 61 1031.9
20260509184016 68 349 2.0 4.0 0.00 0.00 0.00 62 1032.0
20260509183052 68 326 2.0 6.0 0.00 0.00 0.00 59 1032.3
20260509182029 70 240 6.0 13.0 0.00 0.00 0.00 57 1032.3
20260509181025 71 206 4.0 8.0 0.00 0.00 0.00 56 1032.4
20260509180021 72 258 5.0 10.0 0.00 0.00 0.00 52 1032.6
20260509175017 72 222 7.0 14.0 0.00 0.00 0.00 52 1032.6
20260509174053 73 235 4.0 11.0 0.00 0.00 0.00 51 1032.5
20260509173029 74 232 4.0 7.0 0.00 0.00 0.00 51 1032.6
20260509171022 74 203 5.0 14.0 0.00 0.00 0.00 51 1032.8
20260509170018 72 238 3.0 8.0 0.00 0.00 0.00 52 1032.8
20260509165054 72 247 2.0 8.0 0.00 0.00 0.00 52 1033.1
20260509164031 72 239 4.0 9.0 0.00 0.00 0.00 53 1033.0
20260509163027 71 237 6.0 10.0 0.00 0.00 0.00 53 1033.0
20260509162023 71 228 2.0 7.0 0.00 0.00 0.00 53 1033.0
20260509161019 72 184 6.0 10.0 0.00 0.00 0.00 52 1032.9
20260509160016 72 194 7.0 14.0 0.00 0.00 0.00 52 1033.2
20260509155032 72 198 6.0 10.0 0.00 0.00 0.00 54 1033.3
20260509154028 71 216 6.0 18.0 0.00 0.00 0.00 53 1033.4
20260509153024 71 203 6.0 16.0 0.00 0.00 0.00 55 1033.3
20260509152020 70 224 6.0 10.0 0.00 0.00 0.00 55 1033.4
20260509151017 70 194 6.0 11.0 0.00 0.00 0.00 55 1033.6
20260509150033 70 210 4.0 10.0 0.00 0.00 0.00 56 1033.7
20260509145029 69 235 7.0 15.0 0.00 0.00 0.00 57 1033.9
20260509144026 67 227 4.0 7.0 0.00 0.00 0.00 59 1034.0
20260509143021 66 227 4.0 7.0 0.00 0.00 0.00 59 1034.2
20260509142017 65 0.0 0.0 0.00 0.00 0.00 59 1034.2
20260509141033 65 0.0 0.0 0.00 0.00 0.00 59 1034.0
20260509140029 65 228 8.0 8.0 0.00 0.00 0.00 59 1034.1
20260509135025 65 181 6.0 13.0 0.00 0.00 0.00 59 1034.2
20260509134021 64 211 5.0 8.0 0.00 0.00 0.00 59 1034.3
20260509133018 64 261 5.0 10.0 0.00 0.00 0.00 60 1034.2
20260509132034 64 200 5.0 10.0 0.00 0.00 0.00 60 1034.3
20260509131030 64 212 6.0 9.0 0.00 0.00 0.00 59 1034.3
20260509130026 64 202 7.0 14.0 0.00 0.00 0.00 58 1034.2
20260509125022 65 210 8.0 16.0 0.00 0.00 0.00 57 1034.1
20260509124019 64 189 2.0 7.0 0.00 0.00 0.00 59 1033.9
20260509123034 63 181 4.0 11.0 0.00 0.00 0.00 59 1034.0
20260509122050 63 212 8.0 14.0 0.00 0.00 0.00 59 1034.1
20260509121026 62 198 6.0 16.0 0.00 0.00 0.00 59 1034.1
20260509120042 62 174 6.0 13.0 0.00 0.00 0.00 57 1034.1
20260509115019 62 203 4.0 9.0 0.00 0.00 0.00 56 1034.1
20260509114035 61 189 4.0 8.0 0.00 0.00 0.00 56 1033.9
20260509113051 61 211 11.0 13.0 0.00 0.00 0.00 56 1033.8
20260509112028 60 203 5.0 8.0 0.00 0.00 0.00 56 1033.9
20260509111043 60 200 11.0 16.0 0.00 0.00 0.00 56 1033.8
20260509110020 60 203 6.0 10.0 0.00 0.00 0.00 57 1033.8
20260509105116 60 229 3.0 9.0 0.00 0.00 0.00 57 1033.8
20260509104032 60 198 5.0 11.0 0.00 0.00 0.00 57 1033.6
20260509103029 60 207 2.0 3.0 0.00 0.00 0.00 56 1033.6
20260509102045 60 216 4.0 7.0 0.00 0.00 0.00 56 1033.6
20260509101021 60 222 4.0 9.0 0.00 0.00 0.00 55 1033.4
20260509100018 60 224 5.0 9.0 0.00 0.00 0.00 56 1033.4
20260509095033 60 216 4.0 8.0 0.00 0.00 0.00 56 1033.4